IRIDIUM 61 [P]

Last updated on Fri Jun 28 2019 03:46:36 GMT+0000 (Coordinated Universal Time)

1 25263U 98018B 19178.95831645 .00976106 -13818-5 81500-3 0 9994 2 25263 86.4328 9.0374 0403642 161.4190 200.2248 15.39056079113339

Satellite not in orbit